Time,TemperatureF,DewpointF,PressureIn,WindDirection,WindDirectionDegrees,WindSpeedMPH,WindSpeedGustMPH,Humidity,HourlyPrecipIn,Conditions,Clouds,dailyrainin,SoftwareType,DateUTC
2013-11-22 00:00:00,65.6,64.1,30.22,NNE,23,1.2,0.0,95,0.00,CLR,,0.00,WeatherDisplay:10.37,2013-11-22 05:00:00,
2013-11-22 00:01:00,65.7,64.2,30.22,NNE,23,0.0,0.0,95,0.00,CLR,,0.00,WeatherDisplay:10.37,2013-11-22 05:01:00,
2013-11-22 00:02:00,65.7,64.2,30.22,NNE,23,0.0,0.0,95,0.00,CLR,,0.00,WeatherDisplay:10.37,2013-11-22 05:02:00,
2013-11-22 00:07:00,65.7,64.2,30.22,NNE,23,2.3,2.3,95,0.00,CLR,,0.00,WeatherDisplay:10.37,2013-11-22 05:07:00,
2013-11-22 00:12:00,65.8,64.3,30.22,NNE,23,0.0,0.0,95,0.00,CLR,,0.00,WeatherDisplay:10.37,2013-11-22 05:12:00,
2013-11-22 00:17:00,65.8,64.3,30.22,NNE,23,1.2,1.2,95,0.00,CLR,,0.00,WeatherDisplay:10.37,2013-11-22 05:17:00,
2013-11-22 00:22:00,65.9,64.4,30.22,NNE,22,3.5,0.0,95,0.00,CLR,,0.00,WeatherDisplay:10.37,2013-11-22 05:22:00,
2013-11-22 00:27:00,65.9,64.4,30.21,NNE,22,1.2,0.0,95,0.00,CLR,,0.00,WeatherDisplay:10.37,2013-11-22 05:27:00,
2013-11-22 00:32:00,65.9,64.4,30.21,NNE,22,0.0,0.0,95,0.00,CLR,,0.00,WeatherDisplay:10.37,2013-11-22 05:32:00,
2013-11-22 00:37:00,65.9,64.4,30.21,NNE,22,1.2,1.2,95,0.00,CLR,,0.00,WeatherDisplay:10.37,2013-11-22 05:37:00,
2013-11-22 00:42:00,65.9,64.4,30.22,NNE,22,0.0,0.0,95,0.00,CLR,,0.00,WeatherDisplay:10.37,2013-11-22 05:42:00,
2013-11-22 00:47:00,65.9,64.4,30.21,NNE,22,0.0,0.1,95,0.00,CLR,,0.00,WeatherDisplay:10.37,2013-11-22 05:47:00,
2013-11-22 00:52:00,65.9,64.4,30.21,NNE,22,1.2,0.0,95,0.00,CLR,,0.00,WeatherDisplay:10.37,2013-11-22 05:52:00,
2013-11-22 00:57:00,65.9,64.4,30.22,NNE,22,2.3,2.3,95,0.00,CLR,,0.00,WeatherDisplay:10.37,2013-11-22 05:57:00,
2013-11-22 01:02:00,65.9,64.4,30.22,NNE,23,4.6,4.6,95,0.00,CLR,,0.00,WeatherDisplay:10.37,2013-11-22 06:02:00,
2013-11-22 01:07:00,65.9,64.4,30.22,NNE,23,1.2,0.0,95,0.00,CLR,,0.00,WeatherDisplay:10.37,2013-11-22 06:07:00,
2013-11-22 01:12:00,65.9,64.4,30.22,NNE,23,1.2,0.0,95,0.00,CLR,,0.00,WeatherDisplay:10.37,2013-11-22 06:12:00,
2013-11-22 01:17:00,65.9,64.7,30.21,NNE,23,3.5,3.5,96,0.00,CLR,,0.00,WeatherDisplay:10.37,2013-11-22 06:17:00,
2013-11-22 01:22:00,65.9,64.7,30.22,NNE,23,2.3,2.3,96,0.00,CLR,,0.00,WeatherDisplay:10.37,2013-11-22 06:22:00,
2013-11-22 01:27:00,66.0,64.8,30.21,North,5,2.3,2.3,96,0.00,CLR,,0.00,WeatherDisplay:10.37,2013-11-22 06:27:00,
2013-11-22 01:32:00,66.0,64.8,30.21,North,5,1.2,1.2,96,0.00,CLR,,0.00,WeatherDisplay:10.37,2013-11-22 06:32:00,
2013-11-22 01:37:00,66.0,64.8,30.21,North,5,4.6,4.6,96,0.00,CLR,,0.00,WeatherDisplay:10.37,2013-11-22 06:37:00,
2013-11-22 01:42:00,66.1,64.9,30.21,North,5,2.3,0.0,96,0.00,CLR,,0.00,WeatherDisplay:10.37,2013-11-22 06:42:00,
2013-11-22 01:47:00,66.1,64.9,30.21,North,5,1.2,1.2,96,0.00,CLR,,0.00,WeatherDisplay:10.37,2013-11-22 06:47:00,
2013-11-22 01:52:00,66.1,64.9,30.21,North,5,1.0,0.0,96,0.00,CLR,,0.00,WeatherDisplay:10.37,2013-11-22 06:52:00,
2013-11-22 01:57:00,66.2,65.0,30.21,North,5,1.2,0.0,96,0.00,CLR,,0.00,WeatherDisplay:10.37,2013-11-22 06:57:00,
2013-11-22 02:02:00,66.2,65.0,30.21,North,5,1.2,1.2,96,0.00,CLR,,0.00,WeatherDisplay:10.37,2013-11-22 07:02:00,
2013-11-22 02:07:00,66.2,65.0,30.21,North,5,1.2,0.0,96,0.00,CLR,,0.00,WeatherDisplay:10.37,2013-11-22 07:07:00,
2013-11-22 02:12:00,66.2,65.0,30.21,North,5,3.5,3.5,96,0.00,CLR,,0.00,WeatherDisplay:10.37,2013-11-22 07:12:00,
2013-11-22 02:17:00,66.1,64.9,30.21,North,5,2.3,0.0,96,0.00,CLR,,0.00,WeatherDisplay:10.37,2013-11-22 07:17:00,
2013-11-22 02:22:00,66.1,64.9,30.21,North,5,0.0,0.0,96,0.00,CLR,,0.00,WeatherDisplay:10.37,2013-11-22 07:22:00,
2013-11-22 02:27:00,66.1,64.9,30.21,North,5,1.2,0.0,96,0.00,CLR,,0.00,WeatherDisplay:10.37,2013-11-22 07:27:00,
2013-11-22 02:32:00,66.1,64.9,30.20,North,5,0.0,0.0,96,0.00,CLR,,0.00,WeatherDisplay:10.37,2013-11-22 07:32:00,
2013-11-22 02:37:00,66.1,64.6,30.20,North,5,1.2,1.2,95,0.00,CLR,,0.00,WeatherDisplay:10.37,2013-11-22 07:37:00,
2013-11-22 02:42:00,66.0,64.8,30.20,North,5,0.0,0.0,96,0.00,CLR,,0.00,WeatherDisplay:10.37,2013-11-22 07:42:00,
2013-11-22 02:47:00,66.0,64.5,30.20,North,5,0.0,0.0,95,0.00,CLR,,0.00,WeatherDisplay:10.37,2013-11-22 07:47:00,
2013-11-22 02:52:00,65.9,64.4,30.20,North,5,1.2,0.0,95,0.00,CLR,,0.00,WeatherDisplay:10.37,2013-11-22 07:52:00,
2013-11-22 02:57:00,65.8,64.3,30.20,North,5,0.0,0.0,95,0.00,CLR,,0.00,WeatherDisplay:10.37,2013-11-22 07:57:00,
2013-11-22 03:02:00,65.8,64.3,30.20,North,5,0.0,0.0,95,0.00,CLR,,0.00,WeatherDisplay:10.37,2013-11-22 08:02:00,
2013-11-22 03:07:00,65.7,64.5,30.20,North,5,0.0,0.0,96,0.00,CLR,,0.00,WeatherDisplay:10.37,2013-11-22 08:07:00,
2013-11-22 03:12:00,65.7,64.5,30.19,North,5,0.0,0.0,96,0.00,CLR,,0.00,WeatherDisplay:10.37,2013-11-22 08:12:00,
2013-11-22 03:17:00,65.6,64.4,30.19,North,5,0.0,0.0,96,0.00,CLR,,0.00,WeatherDisplay:10.37,2013-11-22 08:17:00,
2013-11-22 03:22:00,65.5,64.3,30.19,North,5,1.2,0.0,96,0.00,CLR,,0.00,WeatherDisplay:10.37,2013-11-22 08:22:00,
2013-11-22 03:27:00,65.5,64.3,30.20,North,5,0.0,0.0,96,0.00,CLR,,0.00,WeatherDisplay:10.37,2013-11-22 08:27:00,
2013-11-22 03:32:00,65.4,64.2,30.19,North,5,1.2,0.0,96,0.00,CLR,,0.00,WeatherDisplay:10.37,2013-11-22 08:32:00,
2013-11-22 03:37:00,65.4,64.2,30.19,North,5,0.0,0.0,96,0.00,CLR,,0.00,WeatherDisplay:10.37,2013-11-22 08:37:00,
2013-11-22 03:42:00,65.4,63.9,30.19,North,5,0.0,0.0,95,0.00,CLR,,0.00,WeatherDisplay:10.37,2013-11-22 08:42:00,
2013-11-22 03:47:00,65.3,63.8,30.19,North,5,0.0,0.0,95,0.00,CLR,,0.00,WeatherDisplay:10.37,2013-11-22 08:47:00,
2013-11-22 03:52:00,65.4,64.2,30.19,North,5,2.3,2.3,96,0.00,CLR,,0.00,WeatherDisplay:10.37,2013-11-22 08:52:00,
2013-11-22 03:57:00,65.4,64.2,30.19,North,5,1.2,1.2,96,0.00,CLR,,0.00,WeatherDisplay:10.37,2013-11-22 08:57:00,
2013-11-22 04:02:00,65.6,64.4,30.19,North,5,1.2,1.2,96,0.00,CLR,,0.00,WeatherDisplay:10.37,2013-11-22 09:02:00,
2013-11-22 04:07:00,65.6,64.4,30.19,North,5,0.0,0.0,96,0.00,CLR,,0.00,WeatherDisplay:10.37,2013-11-22 09:07:00,
2013-11-22 04:12:00,65.7,64.5,30.19,North,5,0.0,0.0,96,0.00,CLR,,0.00,WeatherDisplay:10.37,2013-11-22 09:12:00,
2013-11-22 04:17:00,65.7,64.5,30.19,North,5,3.5,3.5,96,0.00,CLR,,0.00,WeatherDisplay:10.37,2013-11-22 09:17:00,
2013-11-22 04:22:00,65.7,64.5,30.19,North,5,0.0,0.0,96,0.00,CLR,,0.00,WeatherDisplay:10.37,2013-11-22 09:22:00,
2013-11-22 04:27:00,65.7,64.5,30.19,North,5,0.0,0.0,96,0.00,CLR,,0.00,WeatherDisplay:10.37,2013-11-22 09:27:00,
2013-11-22 04:32:00,65.7,64.5,30.19,North,5,3.5,3.5,96,0.00,CLR,,0.00,WeatherDisplay:10.37,2013-11-22 09:32:00,
2013-11-22 04:37:00,65.7,64.5,30.19,North,5,1.2,0.0,96,0.00,CLR,,0.00,WeatherDisplay:10.37,2013-11-22 09:37:00,
2013-11-22 04:42:00,65.7,64.5,30.19,North,5,1.2,1.2,96,0.00,CLR,,0.00,WeatherDisplay:10.37,2013-11-22 09:42:00,
2013-11-22 04:47:00,65.7,64.5,30.19,North,5,0.0,0.0,96,0.00,CLR,,0.00,WeatherDisplay:10.37,2013-11-22 09:47:00,
2013-11-22 04:52:00,65.7,64.5,30.20,North,5,2.3,2.3,96,0.00,CLR,,0.00,WeatherDisplay:10.37,2013-11-22 09:52:00,
2013-11-22 04:57:00,65.7,64.5,30.20,North,5,0.0,0.0,96,0.00,CLR,,0.00,WeatherDisplay:10.37,2013-11-22 09:57:00,
2013-11-22 05:02:00,65.6,64.4,30.20,North,5,3.5,3.5,96,0.00,CLR,,0.00,WeatherDisplay:10.37,2013-11-22 10:02:00,
2013-11-22 05:07:00,65.5,64.3,30.20,North,5,2.3,2.3,96,0.00,CLR,,0.00,WeatherDisplay:10.37,2013-11-22 10:07:00,
2013-11-22 05:12:00,65.5,64.3,30.20,North,5,1.2,1.2,96,0.00,CLR,,0.00,WeatherDisplay:10.37,2013-11-22 10:12:00,
2013-11-22 05:17:00,65.4,64.2,30.20,North,5,1.0,1.0,96,0.00,CLR,,0.00,WeatherDisplay:10.37,2013-11-22 10:17:00,
2013-11-22 05:22:00,65.4,64.2,30.20,North,5,0.0,0.0,96,0.00,CLR,,0.00,WeatherDisplay:10.37,2013-11-22 10:22:00,
2013-11-22 05:27:00,65.3,64.1,30.20,North,5,3.5,3.5,96,0.00,CLR,,0.00,WeatherDisplay:10.37,2013-11-22 10:27:00,
2013-11-22 05:32:00,65.4,64.2,30.20,North,11,4.6,4.6,96,0.00,CLR,,0.00,WeatherDisplay:10.37,2013-11-22 10:32:00,
2013-11-22 05:37:00,65.3,64.1,30.20,North,11,0.0,0.0,96,0.00,CLR,,0.00,WeatherDisplay:10.37,2013-11-22 10:37:00,
2013-11-22 05:42:00,65.3,64.1,30.20,NNE,13,2.0,2.0,96,0.00,CLR,,0.00,WeatherDisplay:10.37,2013-11-22 10:42:00,
2013-11-22 05:47:00,65.3,64.1,30.20,NNE,26,2.3,2.3,96,0.00,CLR,,0.00,WeatherDisplay:10.37,2013-11-22 10:47:00,
2013-11-22 05:52:00,65.3,64.1,30.20,NE,38,5.8,0.0,96,0.00,CLR,,0.00,WeatherDisplay:10.37,2013-11-22 10:52:00,
2013-11-22 05:57:00,65.2,64.0,30.20,NE,36,1.2,0.0,96,0.00,CLR,,0.00,WeatherDisplay:10.37,2013-11-22 10:57:00,
2013-11-22 06:02:00,65.2,64.0,30.20,NE,36,1.2,1.2,96,0.00,CLR,,0.00,WeatherDisplay:10.37,2013-11-22 11:02:00,
2013-11-22 06:07:00,65.1,63.9,30.20,NE,36,1.2,1.2,96,0.00,CLR,,0.00,WeatherDisplay:10.37,2013-11-22 11:07:00,
2013-11-22 06:12:00,65.1,63.9,30.21,NE,36,1.2,1.2,96,0.00,CLR,,0.00,WeatherDisplay:10.37,2013-11-22 11:12:00,
2013-11-22 06:17:00,65.1,63.9,30.21,NNE,27,3.5,3.5,96,0.00,CLR,,0.00,WeatherDisplay:10.37,2013-11-22 11:17:00,
2013-11-22 06:22:00,65.1,63.9,30.21,NNE,27,0.0,0.0,96,0.00,CLR,,0.00,WeatherDisplay:10.37,2013-11-22 11:22:00,
2013-11-22 06:27:00,65.1,63.9,30.21,NNE,27,0.0,0.0,96,0.00,CLR,,0.00,WeatherDisplay:10.37,2013-11-22 11:27:00,
2013-11-22 06:32:00,65.0,63.8,30.21,North,5,3.5,3.5,96,0.00,CLR,,0.00,WeatherDisplay:10.37,2013-11-22 11:32:00,
2013-11-22 06:37:00,65.0,63.8,30.21,North,5,0.0,0.0,96,0.00,CLR,,0.00,WeatherDisplay:10.37,2013-11-22 11:37:00,
2013-11-22 06:42:00,65.0,63.8,30.21,North,5,1.2,0.0,96,0.00,CLR,,0.00,WeatherDisplay:10.37,2013-11-22 11:42:00,
2013-11-22 06:47:00,65.0,63.8,30.21,North,5,0.0,0.0,96,0.00,CLR,,0.00,WeatherDisplay:10.37,2013-11-22 11:47:00,
2013-11-22 06:52:00,65.0,63.8,30.21,North,5,0.0,0.0,96,0.00,CLR,,0.00,WeatherDisplay:10.37,2013-11-22 11:52:00,
2013-11-22 06:57:00,65.0,63.8,30.21,North,5,0.0,0.0,96,0.00,CLR,,0.00,WeatherDisplay:10.37,2013-11-22 11:57:00,
2013-11-22 07:02:00,64.9,63.7,30.21,North,5,2.3,0.0,96,0.00,CLR,,0.00,WeatherDisplay:10.37,2013-11-22 12:02:00,
2013-11-22 07:07:00,64.9,63.7,30.21,North,5,0.0,0.0,96,0.00,CLR,,0.00,WeatherDisplay:10.37,2013-11-22 12:07:00,
2013-11-22 07:12:00,64.9,63.7,30.21,North,10,3.5,3.5,96,0.00,CLR,,0.00,WeatherDisplay:10.37,2013-11-22 12:12:00,
2013-11-22 07:17:00,64.9,63.7,30.22,North,10,0.0,0.0,96,0.00,CLR,,0.00,WeatherDisplay:10.37,2013-11-22 12:17:00,
2013-11-22 07:22:00,64.9,63.7,30.22,North,10,0.0,0.0,96,0.00,CLR,,0.00,WeatherDisplay:10.37,2013-11-22 12:22:00,
2013-11-22 07:27:00,64.9,63.7,30.22,North,10,1.2,0.0,96,0.00,CLR,,0.00,WeatherDisplay:10.37,2013-11-22 12:27:00,
2013-11-22 07:32:00,64.9,63.7,30.22,North,10,3.5,3.5,96,0.00,CLR,,0.00,WeatherDisplay:10.37,2013-11-22 12:32:00,
2013-11-22 07:37:00,64.9,63.7,30.22,North,10,1.2,0.0,96,0.00,CLR,,0.00,WeatherDisplay:10.37,2013-11-22 12:37:00,
2013-11-22 07:42:00,64.9,63.7,30.22,North,10,0.0,0.0,96,0.00,CLR,,0.00,WeatherDisplay:10.37,2013-11-22 12:42:00,
2013-11-22 07:47:00,64.9,63.7,30.22,North,9,3.5,3.5,96,0.00,CLR,,0.00,WeatherDisplay:10.37,2013-11-22 12:47:00,
2013-11-22 07:52:00,64.9,63.7,30.23,North,10,0.0,0.0,96,0.00,CLR,,0.00,WeatherDisplay:10.37,2013-11-22 12:52:00,
2013-11-22 07:57:00,64.8,63.6,30.23,North,9,3.5,3.5,96,0.00,CLR,,0.00,WeatherDisplay:10.37,2013-11-22 12:57:00,
2013-11-22 08:02:00,64.9,63.7,30.23,North,10,1.2,0.0,96,0.00,CLR,,0.00,WeatherDisplay:10.37,2013-11-22 13:02:00,
2013-11-22 08:07:00,64.9,63.7,30.23,North,9,1.2,0.0,96,0.00,CLR,,0.00,WeatherDisplay:10.37,2013-11-22 13:07:00,
2013-11-22 08:12:00,65.0,63.8,30.23,North,9,3.5,0.0,96,0.00,CLR,,0.00,WeatherDisplay:10.37,2013-11-22 13:12:00,
2013-11-22 08:17:00,65.0,63.8,30.23,North,9,1.2,0.0,96,0.00,CLR,,0.00,WeatherDisplay:10.37,2013-11-22 13:17:00,
2013-11-22 08:22:00,65.1,63.9,30.23,North,10,0.0,0.0,96,0.00,CLR,,0.00,WeatherDisplay:10.37,2013-11-22 13:22:00,
2013-11-22 08:27:00,65.3,64.1,30.23,North,10,0.0,0.0,96,0.00,CLR,,0.00,WeatherDisplay:10.37,2013-11-22 13:27:00,
2013-11-22 08:32:00,65.4,64.2,30.23,North,10,0.0,0.1,96,0.00,CLR,,0.00,WeatherDisplay:10.37,2013-11-22 13:32:00,
2013-11-22 08:37:00,65.5,64.3,30.23,North,10,0.0,0.0,96,0.00,CLR,,0.00,WeatherDisplay:10.37,2013-11-22 13:37:00,
2013-11-22 08:42:00,65.6,64.4,30.23,North,10,0.0,0.0,96,0.00,CLR,,0.00,WeatherDisplay:10.37,2013-11-22 13:42:00,
2013-11-22 08:47:00,65.8,64.6,30.23,North,9,3.5,3.5,96,0.00,CLR,,0.00,WeatherDisplay:10.37,2013-11-22 13:47:00,
2013-11-22 08:52:00,66.0,64.8,30.24,North,10,0.0,0.0,96,0.00,CLR,,0.00,WeatherDisplay:10.37,2013-11-22 13:52:00,
2013-11-22 08:57:00,66.2,65.0,30.24,North,10,0.0,0.1,96,0.00,CLR,,0.00,WeatherDisplay:10.37,2013-11-22 13:57:00,
2013-11-22 09:02:00,66.3,64.8,30.24,North,10,2.0,2.0,95,0.00,CLR,,0.00,WeatherDisplay:10.37,2013-11-22 14:02:00,
2013-11-22 09:07:00,66.5,65.0,30.24,North,10,2.3,2.3,95,0.00,CLR,,0.00,WeatherDisplay:10.37,2013-11-22 14:07:00,
2013-11-22 09:12:00,66.8,65.3,30.24,North,10,0.0,0.0,95,0.00,CLR,,0.00,WeatherDisplay:10.37,2013-11-22 14:12:00,
2013-11-22 09:17:00,67.3,65.8,30.24,North,10,0.0,0.0,95,0.00,CLR,,0.00,WeatherDisplay:10.37,2013-11-22 14:17:00,
2013-11-22 09:22:00,67.7,66.2,30.24,North,10,0.0,0.0,95,0.00,CLR,,0.00,WeatherDisplay:10.37,2013-11-22 14:22:00,
2013-11-22 09:27:00,68.4,66.9,30.24,North,10,1.2,0.0,95,0.00,CLR,,0.00,WeatherDisplay:10.37,2013-11-22 14:27:00,
2013-11-22 09:32:00,69.3,67.8,30.24,North,10,2.3,2.3,95,0.00,CLR,,0.00,WeatherDisplay:10.37,2013-11-22 14:32:00,
2013-11-22 09:37:00,70.2,68.4,30.24,North,10,3.5,0.0,94,0.00,CLR,,0.00,WeatherDisplay:10.37,2013-11-22 14:37:00,
2013-11-22 09:42:00,71.1,68.7,30.24,North,10,0.0,0.0,92,0.00,CLR,,0.00,WeatherDisplay:10.37,2013-11-22 14:42:00,
2013-11-22 09:47:00,71.9,69.1,30.24,North,10,1.2,1.2,91,0.00,CLR,,0.00,WeatherDisplay:10.37,2013-11-22 14:47:00,
2013-11-22 09:52:00,72.3,68.9,30.24,North,10,0.0,0.0,89,0.00,CLR,,0.00,WeatherDisplay:10.37,2013-11-22 14:52:00,
2013-11-22 09:57:00,72.5,68.7,30.24,North,10,0.0,0.0,88,0.00,CLR,,0.00,WeatherDisplay:10.37,2013-11-22 14:57:00,
2013-11-22 10:02:00,72.6,69.2,30.24,North,10,0.0,0.0,89,0.00,CLR,,0.00,WeatherDisplay:10.37,2013-11-22 15:02:00,
2013-11-22 10:07:00,72.7,68.9,30.24,North,10,0.0,0.0,88,0.00,CLR,,0.00,WeatherDisplay:10.37,2013-11-22 15:07:00,
2013-11-22 10:12:00,72.9,69.1,30.24,North,10,0.0,0.0,88,0.00,CLR,,0.00,WeatherDisplay:10.37,2013-11-22 15:12:00,
2013-11-22 10:17:00,73.3,69.5,30.24,North,10,1.2,0.0,88,0.00,CLR,,0.00,WeatherDisplay:10.37,2013-11-22 15:17:00,
2013-11-22 10:22:00,73.8,70.0,30.24,North,10,1.2,0.0,88,0.00,CLR,,0.00,WeatherDisplay:10.37,2013-11-22 15:22:00,
2013-11-22 10:27:00,74.2,70.1,30.24,North,10,1.2,0.0,87,0.00,CLR,,0.00,WeatherDisplay:10.37,2013-11-22 15:27:00,
2013-11-22 10:32:00,74.6,70.1,30.24,NNE,12,3.5,3.5,86,0.00,CLR,,0.00,WeatherDisplay:10.37,2013-11-22 15:32:00,
2013-11-22 10:37:00,75.3,70.8,30.24,NNE,12,1.2,0.0,86,0.00,CLR,,0.00,WeatherDisplay:10.37,2013-11-22 15:37:00,
2013-11-22 10:42:00,76.2,71.4,30.24,North,11,0.0,0.0,85,0.00,CLR,,0.00,WeatherDisplay:10.37,2013-11-22 15:42:00,
2013-11-22 10:47:00,76.8,71.2,30.24,NE,39,4.6,4.6,83,0.00,CLR,,0.00,WeatherDisplay:10.37,2013-11-22 15:47:00,
2013-11-22 10:52:00,77.3,71.0,30.24,NE,38,1.2,0.0,81,0.00,CLR,,0.00,WeatherDisplay:10.37,2013-11-22 15:52:00,
2013-11-22 10:57:00,77.6,71.3,30.24,NE,39,0.0,0.0,81,0.00,CLR,,0.00,WeatherDisplay:10.37,2013-11-22 15:57:00,
2013-11-22 11:02:00,77.6,71.3,30.23,NE,34,0.0,0.0,81,0.00,CLR,,0.00,WeatherDisplay:10.37,2013-11-22 16:02:00,
2013-11-22 11:07:00,77.8,71.5,30.23,NE,34,0.0,0.0,81,0.00,CLR,,0.00,WeatherDisplay:10.37,2013-11-22 16:07:00,
2013-11-22 11:12:00,77.9,70.9,30.23,SE,125,0.0,0.0,79,0.00,CLR,,0.00,WeatherDisplay:10.37,2013-11-22 16:12:00,
2013-11-22 11:17:00,77.7,70.7,30.23,SE,128,4.6,4.6,79,0.00,CLR,,0.00,WeatherDisplay:10.37,2013-11-22 16:17:00,
2013-11-22 11:22:00,77.6,70.9,30.23,ESE,118,0.0,0.0,80,0.00,CLR,,0.00,WeatherDisplay:10.37,2013-11-22 16:22:00,
2013-11-22 11:27:00,77.7,71.4,30.23,ESE,118,0.0,0.0,81,0.00,CLR,,0.00,WeatherDisplay:10.37,2013-11-22 16:27:00,
2013-11-22 11:32:00,77.6,71.3,30.22,ESE,118,0.0,0.0,81,0.00,CLR,,0.00,WeatherDisplay:10.37,2013-11-22 16:32:00,
2013-11-22 11:37:00,77.7,71.8,30.22,SE,130,0.0,0.0,82,0.00,CLR,,0.00,WeatherDisplay:10.37,2013-11-22 16:37:00,
2013-11-22 11:42:00,77.7,70.7,30.21,SE,130,1.2,0.0,79,0.00,CLR,,0.00,WeatherDisplay:10.37,2013-11-22 16:42:00,
2013-11-22 11:47:00,78.0,72.1,30.21,ESE,119,1.2,1.2,82,0.00,CLR,,0.00,WeatherDisplay:10.37,2013-11-22 16:47:00,
2013-11-22 11:52:00,78.4,71.7,30.21,SE,138,3.5,3.5,80,0.00,CLR,,0.00,WeatherDisplay:10.37,2013-11-22 16:52:00,
2013-11-22 11:57:00,78.4,71.3,30.21,ESE,123,1.2,0.0,79,0.00,CLR,,0.00,WeatherDisplay:10.37,2013-11-22 16:57:00,
2013-11-22 12:02:00,78.2,71.2,30.21,SE,128,0.0,0.0,79,0.00,CLR,,0.00,WeatherDisplay:10.37,2013-11-22 17:02:00,
2013-11-22 12:07:00,78.0,71.0,30.20,SE,128,4.6,4.6,79,0.00,CLR,,0.00,WeatherDisplay:10.37,2013-11-22 17:07:00,
2013-11-22 12:12:00,78.0,70.6,30.20,SE,138,6.9,6.9,78,0.00,CLR,,0.00,WeatherDisplay:10.37,2013-11-22 17:12:00,
2013-11-22 12:17:00,78.0,70.6,30.20,SSE,157,2.3,2.3,78,0.00,CLR,,0.00,WeatherDisplay:10.37,2013-11-22 17:17:00,
2013-11-22 12:22:00,78.1,70.3,30.20,SE,134,8.1,8.1,77,0.00,CLR,,0.00,WeatherDisplay:10.37,2013-11-22 17:22:00,
2013-11-22 12:27:00,78.1,71.1,30.19,SE,142,0.0,0.0,79,0.00,CLR,,0.00,WeatherDisplay:10.37,2013-11-22 17:27:00,
2013-11-22 12:32:00,78.5,69.9,30.18,SSE,148,5.8,5.8,75,0.00,CLR,,0.00,WeatherDisplay:10.37,2013-11-22 17:32:00,
2013-11-22 12:37:00,78.2,69.2,30.18,SSE,153,6.9,6.9,74,0.00,CLR,,0.00,WeatherDisplay:10.37,2013-11-22 17:37:00,
2013-11-22 12:42:00,78.1,70.3,30.18,SE,140,5.8,5.8,77,0.00,CLR,,0.00,WeatherDisplay:10.37,2013-11-22 17:42:00,
2013-11-22 12:47:00,78.6,70.0,30.18,SE,132,9.0,9.0,75,0.00,CLR,,0.00,WeatherDisplay:10.37,2013-11-22 17:47:00,
2013-11-22 12:52:00,78.7,70.5,30.18,SE,146,5.0,5.0,76,0.00,CLR,,0.00,WeatherDisplay:10.37,2013-11-22 17:52:00,
2013-11-22 12:57:00,78.9,69.9,30.18,SSE,153,1.2,1.2,74,0.00,CLR,,0.00,WeatherDisplay:10.37,2013-11-22 17:57:00,
2013-11-22 13:02:00,78.9,69.9,30.17,SSE,159,11.5,11.5,74,0.00,CLR,,0.00,WeatherDisplay:10.37,2013-11-22 18:02:00,
2013-11-22 13:07:00,78.8,70.2,30.17,SSE,148,5.8,5.8,75,0.00,CLR,,0.00,WeatherDisplay:10.37,2013-11-22 18:07:00,
2013-11-22 13:12:00,78.9,69.9,30.17,SE,130,1.2,1.2,74,0.00,CLR,,0.00,WeatherDisplay:10.37,2013-11-22 18:12:00,
2013-11-22 13:17:00,79.2,69.8,30.17,SE,145,6.9,6.9,73,0.00,CLR,,0.00,WeatherDisplay:10.37,2013-11-22 18:17:00,
2013-11-22 13:22:00,79.5,70.5,30.17,SE,138,4.6,4.6,74,0.00,CLR,,0.00,WeatherDisplay:10.37,2013-11-22 18:22:00,
2013-11-22 13:27:00,79.8,70.0,30.17,SSE,154,11.0,11.0,72,0.00,CLR,,0.00,WeatherDisplay:10.37,2013-11-22 18:27:00,
2013-11-22 13:32:00,79.9,70.5,30.16,East,97,1.2,1.2,73,0.00,CLR,,0.00,WeatherDisplay:10.37,2013-11-22 18:32:00,
2013-11-22 13:37:00,80.2,69.9,30.16,ESE,110,2.3,2.3,71,0.00,CLR,,0.00,WeatherDisplay:10.37,2013-11-22 18:37:00,
2013-11-22 13:42:00,80.1,69.4,30.16,SE,138,1.2,0.0,70,0.00,CLR,,0.00,WeatherDisplay:10.37,2013-11-22 18:42:00,
2013-11-22 13:47:00,79.9,69.7,30.16,SE,138,2.3,2.3,71,0.00,CLR,,0.00,WeatherDisplay:10.37,2013-11-22 18:47:00,
2013-11-22 13:52:00,80.0,69.7,30.16,ESE,104,8.1,8.1,71,0.00,CLR,,0.00,WeatherDisplay:10.37,2013-11-22 18:52:00,
2013-11-22 13:57:00,79.9,69.7,30.16,SSE,151,2.3,2.3,71,0.00,CLR,,0.00,WeatherDisplay:10.37,2013-11-22 18:57:00,
2013-11-22 14:02:00,80.0,68.9,30.15,SE,142,9.2,9.2,69,0.00,CLR,,0.00,WeatherDisplay:10.37,2013-11-22 19:02:00,
2013-11-22 14:07:00,79.8,69.1,30.15,SE,137,10.4,10.4,70,0.00,CLR,,0.00,WeatherDisplay:10.37,2013-11-22 19:07:00,
2013-11-22 14:12:00,79.6,69.4,30.15,SSE,151,5.8,5.8,71,0.00,CLR,,0.00,WeatherDisplay:10.37,2013-11-22 19:12:00,
2013-11-22 14:17:00,79.7,69.0,30.15,NNE,27,11.5,11.5,70,0.00,CLR,,0.00,WeatherDisplay:10.37,2013-11-22 19:17:00,
2013-11-22 14:22:00,79.6,69.4,30.15,NE,48,1.2,0.0,71,0.00,CLR,,0.00,WeatherDisplay:10.37,2013-11-22 19:22:00,
2013-11-22 14:27:00,79.4,68.8,30.15,SE,127,9.2,9.2,70,0.00,CLR,,0.00,WeatherDisplay:10.37,2013-11-22 19:27:00,
2013-11-22 14:32:00,79.3,69.5,30.15,SE,142,1.2,1.2,72,0.00,CLR,,0.00,WeatherDisplay:10.37,2013-11-22 19:32:00,
2013-11-22 14:37:00,79.2,69.4,30.15,SSE,150,8.1,8.1,72,0.00,CLR,,0.00,WeatherDisplay:10.37,2013-11-22 19:37:00,
2013-11-22 14:42:00,79.1,69.3,30.15,SE,145,3.5,3.5,72,0.00,CLR,,0.00,WeatherDisplay:10.37,2013-11-22 19:42:00,
2013-11-22 14:47:00,79.0,68.4,30.15,ESE,116,9.2,9.2,70,0.00,CLR,,0.00,WeatherDisplay:10.37,2013-11-22 19:47:00,
2013-11-22 14:52:00,78.9,69.1,30.15,ESE,119,1.2,1.2,72,0.00,CLR,,0.00,WeatherDisplay:10.37,2013-11-22 19:52:00,
2013-11-22 14:57:00,79.0,68.8,30.15,ESE,105,5.8,5.8,71,0.00,CLR,,0.00,WeatherDisplay:10.37,2013-11-22 19:57:00,
2013-11-22 15:02:00,78.9,68.7,30.15,SSE,155,4.6,0.0,71,0.00,CLR,,0.00,WeatherDisplay:10.37,2013-11-22 20:02:00,
2013-11-22 15:07:00,78.9,68.3,30.15,ESE,115,1.2,0.0,70,0.00,CLR,,0.00,WeatherDisplay:10.37,2013-11-22 20:07:00,
2013-11-22 15:12:00,78.9,68.3,30.15,ESE,113,1.2,0.0,70,0.00,CLR,,0.00,WeatherDisplay:10.37,2013-11-22 20:12:00,
2013-11-22 15:17:00,79.0,68.4,30.15,SE,138,8.1,8.1,70,0.00,CLR,,0.00,WeatherDisplay:10.37,2013-11-22 20:17:00,
2013-11-22 15:22:00,79.0,68.4,30.15,SE,138,1.2,1.2,70,0.00,CLR,,0.00,WeatherDisplay:10.37,2013-11-22 20:22:00,
2013-11-22 15:27:00,79.0,68.4,30.15,SE,144,0.0,0.0,70,0.00,CLR,,0.00,WeatherDisplay:10.37,2013-11-22 20:27:00,
2013-11-22 15:32:00,79.1,68.5,30.15,SE,146,0.0,0.0,70,0.00,CLR,,0.00,WeatherDisplay:10.37,2013-11-22 20:32:00,
2013-11-22 15:37:00,79.0,68.4,30.15,SE,146,6.0,6.0,70,0.00,CLR,,0.00,WeatherDisplay:10.37,2013-11-22 20:37:00,
2013-11-22 15:42:00,78.5,67.5,30.15,SE,140,8.1,8.1,69,0.00,CLR,,0.00,WeatherDisplay:10.37,2013-11-22 20:42:00,
2013-11-22 15:47:00,78.2,67.6,30.15,SE,139,0.0,0.0,70,0.00,CLR,,0.00,WeatherDisplay:10.37,2013-11-22 20:47:00,
2013-11-22 15:52:00,78.1,67.5,30.15,East,97,1.2,1.2,70,0.00,CLR,,0.00,WeatherDisplay:10.37,2013-11-22 20:52:00,
2013-11-22 15:57:00,77.9,67.7,30.15,SE,130,3.5,3.5,71,0.00,CLR,,0.00,WeatherDisplay:10.37,2013-11-22 20:57:00,
2013-11-22 16:02:00,77.9,67.3,30.15,SE,132,0.0,0.0,70,0.00,CLR,,0.00,WeatherDisplay:10.37,2013-11-22 21:02:00,
2013-11-22 16:07:00,78.2,68.0,30.15,SE,132,0.0,0.0,71,0.00,CLR,,0.00,WeatherDisplay:10.37,2013-11-22 21:07:00,
2013-11-22 16:12:00,78.1,67.5,30.15,SE,142,4.6,4.6,70,0.00,CLR,,0.00,WeatherDisplay:10.37,2013-11-22 21:12:00,
2013-11-22 16:17:00,77.9,68.1,30.15,SE,143,0.0,0.0,72,0.00,CLR,,0.00,WeatherDisplay:10.37,2013-11-22 21:17:00,
2013-11-22 16:22:00,77.6,67.9,30.15,SE,143,0.0,0.1,72,0.00,CLR,,0.00,WeatherDisplay:10.37,2013-11-22 21:22:00,
2013-11-22 16:27:00,77.4,67.3,30.15,SE,143,1.2,0.0,71,0.00,CLR,,0.00,WeatherDisplay:10.37,2013-11-22 21:27:00,
2013-11-22 16:32:00,77.0,66.9,30.15,ESE,115,8.1,8.1,71,0.00,CLR,,0.00,WeatherDisplay:10.37,2013-11-22 21:32:00,
2013-11-22 16:37:00,76.5,67.2,30.14,SSE,149,2.3,2.3,73,0.00,CLR,,0.00,WeatherDisplay:10.37,2013-11-22 21:37:00,
2013-11-22 16:42:00,76.2,66.9,30.15,SSE,148,4.6,4.6,73,0.00,CLR,,0.00,WeatherDisplay:10.37,2013-11-22 21:42:00,
2013-11-22 16:47:00,75.9,66.6,30.15,SSE,147,5.8,5.8,73,0.00,CLR,,0.00,WeatherDisplay:10.37,2013-11-22 21:47:00,
2013-11-22 16:52:00,75.7,66.4,30.15,SSE,148,4.6,4.6,73,0.00,CLR,,0.00,WeatherDisplay:10.37,2013-11-22 21:52:00,
2013-11-22 16:57:00,75.5,66.6,30.15,SSE,148,1.2,1.2,74,0.00,CLR,,0.00,WeatherDisplay:10.37,2013-11-22 21:57:00,
2013-11-22 17:02:00,75.1,66.6,30.14,SSE,148,2.3,2.3,75,0.00,CLR,,0.00,WeatherDisplay:10.37,2013-11-22 22:02:00,
2013-11-22 17:07:00,74.8,66.3,30.14,SSE,148,0.0,0.0,75,0.00,CLR,,0.00,WeatherDisplay:10.37,2013-11-22 22:07:00,
2013-11-22 17:12:00,74.5,66.4,30.15,SSE,148,5.0,5.0,76,0.00,CLR,,0.00,WeatherDisplay:10.37,2013-11-22 22:12:00,
2013-11-22 17:17:00,74.3,66.2,30.14,SSE,148,4.6,0.0,76,0.00,CLR,,0.00,WeatherDisplay:10.37,2013-11-22 22:17:00,
2013-11-22 17:22:00,74.0,66.0,30.14,SSE,148,1.2,1.2,76,0.00,CLR,,0.00,WeatherDisplay:10.37,2013-11-22 22:22:00,
2013-11-22 17:27:00,73.8,66.1,30.15,SSE,148,0.0,0.0,77,0.00,CLR,,0.00,WeatherDisplay:10.37,2013-11-22 22:27:00,
2013-11-22 17:32:00,73.6,66.3,30.15,SSE,148,0.0,0.0,78,0.00,CLR,,0.00,WeatherDisplay:10.37,2013-11-22 22:32:00,
2013-11-22 17:37:00,73.4,66.5,30.15,SSE,148,0.0,0.0,79,0.00,CLR,,0.00,WeatherDisplay:10.37,2013-11-22 22:37:00,
2013-11-22 17:42:00,73.2,66.3,30.15,SSE,148,0.0,0.0,79,0.00,CLR,,0.00,WeatherDisplay:10.37,2013-11-22 22:42:00,
2013-11-22 17:47:00,73.0,66.1,30.15,SSE,148,0.0,0.0,79,0.00,CLR,,0.00,WeatherDisplay:10.37,2013-11-22 22:47:00,
2013-11-22 17:52:00,72.8,66.3,30.15,SSE,148,0.0,0.0,80,0.00,CLR,,0.00,WeatherDisplay:10.37,2013-11-22 22:52:00,
2013-11-22 17:57:00,72.6,66.1,30.15,SSE,148,0.0,0.0,80,0.00,CLR,,0.00,WeatherDisplay:10.37,2013-11-22 22:57:00,
2013-11-22 18:02:00,72.4,65.9,30.15,SSE,148,0.0,0.0,80,0.00,CLR,,0.00,WeatherDisplay:10.37,2013-11-22 23:02:00,
2013-11-22 18:07:00,72.1,65.9,30.15,SSE,148,0.0,0.0,81,0.00,CLR,,0.00,WeatherDisplay:10.37,2013-11-22 23:07:00,
2013-11-22 18:12:00,71.8,66.0,30.15,SSE,148,0.0,0.0,82,0.00,CLR,,0.00,WeatherDisplay:10.37,2013-11-22 23:12:00,
2013-11-22 18:17:00,71.5,65.7,30.15,SSE,148,0.0,0.0,82,0.00,CLR,,0.00,WeatherDisplay:10.37,2013-11-22 23:17:00,
2013-11-22 18:22:00,71.1,65.7,30.15,SSE,148,0.0,0.0,83,0.00,CLR,,0.00,WeatherDisplay:10.37,2013-11-22 23:22:00,
2013-11-22 18:27:00,70.8,65.7,30.15,SSE,148,1.2,0.0,84,0.00,CLR,,0.00,WeatherDisplay:10.37,2013-11-22 23:27:00,
2013-11-22 18:32:00,70.5,65.4,30.15,SSE,148,0.0,0.0,84,0.00,CLR,,0.00,WeatherDisplay:10.37,2013-11-22 23:32:00,
2013-11-22 18:37:00,70.3,65.6,30.15,SSE,148,0.0,0.0,85,0.00,CLR,,0.00,WeatherDisplay:10.37,2013-11-22 23:37:00,
2013-11-22 18:42:00,70.2,65.5,30.15,SSE,148,0.0,0.0,85,0.00,CLR,,0.00,WeatherDisplay:10.37,2013-11-22 23:42:00,
2013-11-22 18:47:00,70.1,65.7,30.15,SSE,148,0.0,0.0,86,0.00,CLR,,0.00,WeatherDisplay:10.37,2013-11-22 23:47:00,
2013-11-22 18:52:00,70.0,65.6,30.15,SSE,148,0.0,0.0,86,0.00,CLR,,0.00,WeatherDisplay:10.37,2013-11-22 23:52:00,
2013-11-22 18:57:00,69.9,65.5,30.16,SSE,148,0.0,0.0,86,0.00,CLR,,0.00,WeatherDisplay:10.37,2013-11-22 23:57:00,
2013-11-22 19:02:00,69.8,65.4,30.16,SSE,148,0.0,0.0,86,0.00,CLR,,0.00,WeatherDisplay:10.37,2013-11-23 00:02:00,
2013-11-22 19:07:00,69.7,65.3,30.16,SSE,148,0.0,0.0,86,0.00,CLR,,0.00,WeatherDisplay:10.37,2013-11-23 00:07:00,
2013-11-22 19:12:00,69.6,65.2,30.16,SSE,148,0.0,0.0,86,0.00,CLR,,0.00,WeatherDisplay:10.37,2013-11-23 00:12:00,
2013-11-22 19:17:00,69.4,65.4,30.16,SSE,148,0.0,0.0,87,0.00,CLR,,0.00,WeatherDisplay:10.37,2013-11-23 00:17:00,
2013-11-22 19:22:00,69.3,65.3,30.16,SSE,148,0.0,0.0,87,0.00,CLR,,0.00,WeatherDisplay:10.37,2013-11-23 00:22:00,
2013-11-22 19:27:00,69.1,65.4,30.16,SSE,148,0.0,0.0,88,0.00,CLR,,0.00,WeatherDisplay:10.37,2013-11-23 00:27:00,
2013-11-22 19:32:00,68.9,65.2,30.16,SSE,148,0.0,0.0,88,0.00,CLR,,0.00,WeatherDisplay:10.37,2013-11-23 00:32:00,
2013-11-22 19:37:00,68.6,64.9,30.16,SSE,148,0.0,0.0,88,0.00,CLR,,0.00,WeatherDisplay:10.37,2013-11-23 00:37:00,
2013-11-22 19:42:00,68.5,65.1,30.15,SSE,148,0.0,0.0,89,0.00,CLR,,0.00,WeatherDisplay:10.37,2013-11-23 00:42:00,
2013-11-22 19:47:00,68.4,65.0,30.16,SSE,148,0.0,0.0,89,0.00,CLR,,0.00,WeatherDisplay:10.37,2013-11-23 00:47:00,
2013-11-22 19:52:00,68.2,64.8,30.15,SSE,148,0.0,0.0,89,0.00,CLR,,0.00,WeatherDisplay:10.37,2013-11-23 00:52:00,
2013-11-22 19:57:00,68.0,64.6,30.15,SSE,148,0.0,0.0,89,0.00,CLR,,0.00,WeatherDisplay:10.37,2013-11-23 00:57:00,
2013-11-22 20:02:00,67.8,64.8,30.15,SSE,148,0.0,0.0,90,0.00,CLR,,0.00,WeatherDisplay:10.37,2013-11-23 01:02:00,
2013-11-22 20:07:00,67.6,64.6,30.15,SSE,148,0.0,0.0,90,0.00,CLR,,0.00,WeatherDisplay:10.37,2013-11-23 01:07:00,
2013-11-22 20:12:00,67.6,64.6,30.15,SSE,148,0.0,0.0,90,0.00,CLR,,0.00,WeatherDisplay:10.37,2013-11-23 01:12:00,
2013-11-22 20:17:00,67.5,64.8,30.15,SSE,148,0.0,0.0,91,0.00,CLR,,0.00,WeatherDisplay:10.37,2013-11-23 01:17:00,
2013-11-22 20:22:00,67.4,64.7,30.15,SSE,148,0.0,0.0,91,0.00,CLR,,0.00,WeatherDisplay:10.37,2013-11-23 01:22:00,
2013-11-22 20:27:00,67.2,64.5,30.15,SSE,148,0.0,0.0,91,0.00,CLR,,0.00,WeatherDisplay:10.37,2013-11-23 01:27:00,
2013-11-22 20:32:00,67.1,64.7,30.15,SSE,148,0.0,0.0,92,0.00,CLR,,0.00,WeatherDisplay:10.37,2013-11-23 01:32:00,
2013-11-22 20:37:00,67.0,64.6,30.15,SSE,148,0.0,0.0,92,0.00,CLR,,0.00,WeatherDisplay:10.37,2013-11-23 01:37:00,
2013-11-22 20:42:00,66.9,64.8,30.15,SSE,148,0.0,0.0,93,0.00,CLR,,0.00,WeatherDisplay:10.37,2013-11-23 01:42:00,
2013-11-22 20:47:00,66.8,64.4,30.15,SSE,148,0.0,0.0,92,0.00,CLR,,0.00,WeatherDisplay:10.37,2013-11-23 01:47:00,
2013-11-22 20:52:00,66.7,64.3,30.15,SSE,148,0.0,0.0,92,0.00,CLR,,0.00,WeatherDisplay:10.37,2013-11-23 01:52:00,
2013-11-22 20:57:00,66.6,64.2,30.15,SSE,148,0.0,0.0,92,0.00,CLR,,0.00,WeatherDisplay:10.37,2013-11-23 01:57:00,
2013-11-22 21:02:00,66.5,64.1,30.15,SSE,148,0.0,0.0,92,0.00,CLR,,0.00,WeatherDisplay:10.37,2013-11-23 02:02:00,
2013-11-22 21:07:00,66.4,64.3,30.15,SSE,148,0.0,0.0,93,0.00,CLR,,0.00,WeatherDisplay:10.37,2013-11-23 02:07:00,
2013-11-22 21:12:00,66.4,64.3,30.15,SSE,148,0.0,0.0,93,0.00,CLR,,0.00,WeatherDisplay:10.37,2013-11-23 02:12:00,
2013-11-22 21:17:00,66.3,64.2,30.15,SSE,148,0.0,0.0,93,0.00,CLR,,0.00,WeatherDisplay:10.37,2013-11-23 02:17:00,
2013-11-22 21:22:00,66.3,64.2,30.15,SSE,148,0.0,0.0,93,0.00,CLR,,0.00,WeatherDisplay:10.37,2013-11-23 02:22:00,
2013-11-22 21:27:00,66.3,64.2,30.15,SSE,148,0.0,0.0,93,0.00,CLR,,0.00,WeatherDisplay:10.37,2013-11-23 02:27:00,
2013-11-22 21:32:00,66.1,64.0,30.15,SSE,148,0.0,0.0,93,0.00,CLR,,0.00,WeatherDisplay:10.37,2013-11-23 02:32:00,
2013-11-22 21:37:00,66.0,63.9,30.15,SSE,148,0.0,0.0,93,0.00,CLR,,0.00,WeatherDisplay:10.37,2013-11-23 02:37:00,
2013-11-22 21:42:00,66.0,63.9,30.15,SSE,148,0.0,0.0,93,0.00,CLR,,0.00,WeatherDisplay:10.37,2013-11-23 02:42:00,
2013-11-22 21:47:00,65.9,64.1,30.15,SSE,148,0.0,0.0,94,0.00,CLR,,0.00,WeatherDisplay:10.37,2013-11-23 02:47:00,
2013-11-22 21:52:00,65.9,64.1,30.15,SSE,148,0.0,0.0,94,0.00,CLR,,0.00,WeatherDisplay:10.37,2013-11-23 02:52:00,
2013-11-22 21:57:00,65.9,64.1,30.14,SSE,148,0.0,0.0,94,0.00,CLR,,0.00,WeatherDisplay:10.37,2013-11-23 02:57:00,
2013-11-22 22:02:00,65.9,64.1,30.14,SSE,148,0.0,0.0,94,0.00,CLR,,0.00,WeatherDisplay:10.37,2013-11-23 03:02:00,
2013-11-22 22:07:00,65.8,64.0,30.14,SSE,148,1.2,1.2,94,0.00,CLR,,0.00,WeatherDisplay:10.37,2013-11-23 03:07:00,
2013-11-22 22:12:00,65.8,64.0,30.14,SSE,148,1.2,1.2,94,0.00,CLR,,0.00,WeatherDisplay:10.37,2013-11-23 03:12:00,
2013-11-22 22:17:00,65.7,63.9,30.14,SSE,148,0.0,0.0,94,0.00,CLR,,0.00,WeatherDisplay:10.37,2013-11-23 03:17:00,
2013-11-22 22:22:00,65.7,63.9,30.14,SSE,148,0.0,0.0,94,0.00,CLR,,0.00,WeatherDisplay:10.37,2013-11-23 03:22:00,
2013-11-22 22:27:00,65.6,63.8,30.14,SSE,148,0.0,0.0,94,0.00,CLR,,0.00,WeatherDisplay:10.37,2013-11-23 03:27:00,
2013-11-22 22:32:00,65.6,63.8,30.13,SSE,148,0.0,0.0,94,0.00,CLR,,0.00,WeatherDisplay:10.37,2013-11-23 03:32:00,
2013-11-22 22:37:00,65.6,63.8,30.13,SSE,148,0.0,0.0,94,0.00,CLR,,0.00,WeatherDisplay:10.37,2013-11-23 03:37:00,
2013-11-22 22:42:00,65.6,63.8,30.13,SSE,148,0.0,0.0,94,0.00,CLR,,0.00,WeatherDisplay:10.37,2013-11-23 03:42:00,
2013-11-22 22:47:00,65.5,63.7,30.13,SSE,148,0.0,0.0,94,0.00,CLR,,0.00,WeatherDisplay:10.37,2013-11-23 03:47:00,
2013-11-22 22:52:00,65.4,63.6,30.13,SSE,148,0.0,0.0,94,0.00,CLR,,0.00,WeatherDisplay:10.37,2013-11-23 03:52:00,
2013-11-22 22:57:00,65.3,63.5,30.13,SSE,148,0.0,0.0,94,0.00,CLR,,0.00,WeatherDisplay:10.37,2013-11-23 03:57:00,
2013-11-22 23:02:00,65.1,63.3,30.13,SSE,148,0.0,0.0,94,0.00,CLR,,0.00,WeatherDisplay:10.37,2013-11-23 04:02:00,
2013-11-22 23:07:00,64.9,63.1,30.13,SSE,148,0.0,0.0,94,0.00,CLR,,0.00,WeatherDisplay:10.37,2013-11-23 04:07:00,
2013-11-22 23:12:00,64.8,63.3,30.12,SSE,148,0.0,0.0,95,0.00,CLR,,0.00,WeatherDisplay:10.37,2013-11-23 04:12:00,
2013-11-22 23:17:00,64.7,63.2,30.12,SSE,148,0.0,0.0,95,0.00,CLR,,0.00,WeatherDisplay:10.37,2013-11-23 04:17:00,
2013-11-22 23:22:00,64.6,63.1,30.12,SSE,148,0.0,0.0,95,0.00,CLR,,0.00,WeatherDisplay:10.37,2013-11-23 04:22:00,
2013-11-22 23:27:00,64.6,63.1,30.12,SSE,148,0.0,0.0,95,0.00,CLR,,0.00,WeatherDisplay:10.37,2013-11-23 04:27:00,
2013-11-22 23:32:00,64.5,63.0,30.12,SSE,148,0.0,0.0,95,0.00,CLR,,0.00,WeatherDisplay:10.37,2013-11-23 04:32:00,
2013-11-22 23:37:00,64.4,62.9,30.12,SSE,148,0.0,0.0,95,0.00,CLR,,0.00,WeatherDisplay:10.37,2013-11-23 04:37:00,
2013-11-22 23:42:00,64.4,62.9,30.13,SSE,148,0.0,0.0,95,0.00,CLR,,0.00,WeatherDisplay:10.37,2013-11-23 04:42:00,
2013-11-22 23:47:00,64.4,62.9,30.12,SSE,148,0.0,0.0,95,0.00,CLR,,0.00,WeatherDisplay:10.37,2013-11-23 04:47:00,
2013-11-22 23:52:00,64.3,62.8,30.12,SSE,148,0.0,0.0,95,0.00,CLR,,0.00,WeatherDisplay:10.37,2013-11-23 04:52:00,
2013-11-22 23:57:00,64.2,62.7,30.12,SSE,148,0.0,0.0,95,0.00,CLR,,0.00,WeatherDisplay:10.37,2013-11-23 04:57:00,